User: anonymous
Location: Fort Wayne
(41.1310°N, 85.1290°W)
Time: 23:58:32
(UTC-04:00)
Language:

MetOp-A - Orbit

View from above orbital plane
View from above orbital plane
View from above satellite
View from above satellite

Ground track
Ground track

The orbit data is extracted from the following two-line orbital elements,

1 29499U 06044A   14114.14111542  .00000180  00000-0  10261-3 0  3296
2 29499 098.7305 174.2668 0000212 009.3599 018.7870 14.21479505389752
Epoch (UTC): 24 April 2014 03:23:12
Eccentricity: 0.0000212
inclination: 98.7305°
perigee height: 820 km
apogee height: 820 km
right ascension of ascending node: 174.2668°
argument of perigee: 9.3599°
revolutions per day: 14.21479505
mean anomaly at epoch: 18.7870°
orbit number at epoch: 38975

The dashed part of the orbit path shows where the satellite is in the earth's shadow,  

DLR